Regional Weather Roundup
Issued by NWS

Home | Current Version | Previous Version | Graphics & Text | Print | Product List | Glossary On
Versions: 1 2 3 4 5 6 7 8 9 10 11 12 13 14 15 16 17 18 19 20 21 22 23 24 25 26 27 28 29 30 31 32 33 34 35 36 37 38 39 40 41 42 43 44 45 46 47 48 49 50
000
ASUS45 KPSR 310410
RWRAZ

ARIZONA REGIONAL HOURLY WEATHER ROUNDUP
NATIONAL WEATHER SERVICE PHOENIX AZ
900 PM MST FRI JAN 30 2015

NOTE: FAIR INDICATES FEW OR NO CLOUDS BELOW 12,000 FEET WITH NO
SIGNIFICANT WEATHER AND/OR OBSTRUCTIONS TO VISIBILITY.

AZZ001>003-036-310500-
NORTHWEST ARIZONA

CITY           SKY/WX    TMP DP  RH WIND       PRES   REMARKS
BULLHEAD CITY  MOCLDY    54  50  87 N5        29.88R
KINGMAN        CLOUDY    46  45  96 N3        29.87R
$$

AZZ004>008-015-016-018-310500-
NORTH CENTRAL ARIZONA

CITY           SKY/WX    TMP DP  RH WIND       PRES   REMARKS
GRAND CANYON   CLOUDY    37  36  96 E3        29.90S
PRESCOTT       MOCLDY    45  41  86 CALM      29.89S
FLAGSTAFF      LGT RAIN  38  36  92 S3        29.91S FOG
PAYSON         LGT RAIN  43  43 100 VRB5      29.94R
$$

AZZ009>014-017-310500-
NORTHEAST ARIZONA

CITY           SKY/WX    TMP DP  RH WIND       PRES   REMARKS
WINSLOW        LGT RAIN  45  43  93 E7        29.90S
SAINT JOHNS    LGT RAIN  44  40  85 CALM      29.91R
WINDOW ROCK    LGT SNOW  34  31  88 CALM      29.97S FOG
SHOW LOW       LGT RAIN  37  36  93 S15       29.95F WCI  28
$$

AZZ023-310500-
GREATER PHOENIX AREA

CITY           SKY/WX    TMP DP  RH WIND       PRES   REMARKS
PHOENIX        CLOUDY    57  54  89 E9        29.84S
BUCKEYE          N/A     57  57 100 E7        29.85S
LUKE AFB       MOCLDY    57  55  94 E6        29.84S
DEER VALLEY    CLOUDY    55  54  96 CALM      29.85S
SCOTTSDALE     CLOUDY    56  52  86 CALM      29.86S
MESA-GATEWAY   LGT RAIN  55  54  94 VRB6      29.87
CHANDLER       CLOUDY    55  55 100 NE7       29.86S
$$

AZZ027-028-310500-
SOUTHWEST MARICOPA COUNTY AND PINAL COUNTY

CITY           SKY/WX    TMP DP  RH WIND       PRES   REMARKS
CASA GRANDE    CLOUDY    55  54  94 CALM      29.87R
GILA BEND      CLOUDY    59  56  91 CALM      29.84S
$$

AZZ503-504-507>509-310500-
SOUTHEAST ARIZONA

CITY           SKY/WX    TMP DP  RH WIND       PRES   REMARKS
TUCSON         HVY RAIN  54  53  97 SW5       29.90S FOG
DAVIS-MONTHAN  CLOUDY    54  54 100 W6        29.88R FOG
NOGALES        RAIN      50  47  89 SW5       29.91S FOG
SIERRA VISTA   LGT RAIN  48  45  87 CALM      29.92S
SAFFORD        LGT RAIN  47  46  97 CALM      29.93F FOG
$$

AZZ020-021-025-026-031-310500-
SOUTHWEST ARIZONA

CITY           SKY/WX    TMP DP  RH WIND       PRES   REMARKS
YUMA           CLOUDY    63  51  65 CALM      29.84S
$$

CAZ031-033-041-043-047-048-061-310500-
SOUTHERN CALIFORNIA

CITY           SKY/WX    TMP DP  RH WIND       PRES   REMARKS
DOWNTOWN L.A.  PTCLDY    61  53  75 CALM      29.86R
L.A. AIRPORT   PTCLDY    60  56  86 NE5       29.86R
SAN DIEGO      CLOUDY    61  55  81 SE3       29.90S
BURBANK        PTCLDY    57  54  89 CALM      29.86R
ONTARIO        CLOUDY    59  49  69 SW5       29.86S
RIVERSIDE      MOCLDY    56  53  90 NE3       29.87R
PALM SPRINGS   MOCLDY    61  51  70 CALM      29.87R
EL CENTRO NAS  CLOUDY    59  47  64 NW3       29.84R
IMPERIAL       MOCLDY    62  48  60 N5        29.83S
BLYTHE         CLOUDY    60  55  83 NW3       29.85R
NEEDLES        CLOUDY    58  48  69 N9        29.86S
$$

NVZ020-UTZ003-310500-
SOUTHERN NEVADA-UTAH

CITY           SKY/WX    TMP DP  RH WIND       PRES   REMARKS
LAS VEGAS      CLOUDY    52  43  71 CALM      29.83S
SALT LAKE CITY CLOUDY    41  36  82 W8        29.98S
$$

NMZ009-TXZ055-310500-
NEW MEXICO-WEST TEXAS

CITY           SKY/WX    TMP DP  RH WIND       PRES   REMARKS
ALBUQUERQUE    CLOUDY    37  32  82 E10       30.05F WCI  30
EL PASO        LGT RAIN  43  40  89 NE6       30.06F
$$


........................KEY........................
SKY/WX - SKY CONDITION/WEATHER
TMP    - TEMPERATURE IN FAHRENHEIT
DP     - DEW POINT IN FAHRENHEIT
RH     - RELATIVE HUMIDITY IN PERCENT
WIND   - DIRECTION AND SPEED IN MILES PER HOUR (MPH)
VRB    - VARIABLE WIND DIRECTION
PRES   - MEAN SEA LEVEL PRESSURE IN INCHES OF MERCURY
         F - FALLING PRESSURE   R - RISING PRESSURE
         S - STEADY PRESSURE
VSB    - VISIBILITY IN MILES
HX     - HEAT INDEX IN FAHRENHEIT
WCI    - WIND CHILL INDEX IN FAHRENHEIT
TC     - TEMPERATURE IN CELSIUS WHICH IS ALSO KNOWN AS
         TEMPERATURE IN CENTIGRADE
AFB    - AIR FORCE BASE
         LUKE AFB IS LUKE AIR FORCE BASE
         DAVIS-MONTHAN IS DAVIS-MONTHAN AIR FORCE BASE
NAS    - NAVAL AIR STATION
         EL CENTRO NAS IS EL CENTRO NAVAL AIR STATION
N/A    - NOT AVAILABLE


USA.gov is the U.S. government's official web portal to all federal, state and local government web resources and services.